[[{"header":{"parameterUnit":"m.s-1","parameterCategory":1,"la1":30.2991,"la2":30.254,"lo1":-89.0895,"lo2":-89.0444,"dy":0.0017,"dx":0.0017,"nx":28,"ny":28,"refTime":"2024-05-01T09:00:00:Z","depth":0,"parameterNumber":2,"parameterNumberName":"U-component_of_WINDS"},"data":[0,0,0,0,0,0,0,0,0,0,0,0,0,0,0,0,0,0,0,0,0,0,0,0,0,0,0,0,0,0,0,0,0,0,0,0,0,0,0,0,0,0,0,0,0,0,0,0,0,0,0,0,0,0,0,0,0,0,-0.9991,-0.9991,0,-0.9966,-0.9965,-0.9965,-0.9922,-0.9921,-0.9921,-0.992,-0.9894,-0.9894,-0.9894,0,0,0,0,0,0,0,0,0,0,0,0,0,-1.0004,-1.0004,-0.9991,-0.9991,-0.999,-0.9966,-0.9965,-0.9965,-0.9922,-0.9921,-0.992,-0.992,-0.9894,-0.9894,-0.9894,0,0,0,0,0,0,0,0,0,0,0,0,0,-0.999,-1.0004,-0.9991,-0.9966,-0.9964,-0.9966,-0.9965,-0.9965,-0.9923,-0.9921,-0.992,-0.9919,-0.9894,-0.9894,-0.9894,-0.9918,0,0,-0.9894,-0.9894,0,0,0,0,0,0,0,0,-0.9991,-0.999,-0.997,-0.9968,-0.9965,-0.9946,-0.996,-0.9949,-0.9923,-0.9938,-0.992,-0.9919,-0.9912,-0.9911,-0.9909,-0.9917,-0.9916,-0.9894,-0.9894,-0.9894,-0.9895,0,0,0,0,0,0,0,-0.9992,-0.9991,-0.9981,-0.997,-0.9967,-0.9957,-0.9953,-0.9958,-0.9932,-0.9937,-0.9934,-0.9931,-0.9911,-0.9909,-0.9908,-0.9916,-0.9894,-0.9894,-0.9895,-0.9895,-0.9943,-0.9944,0,0,0,0,0,0,-0.9997,-0.9992,-0.9982,-0.998,-0.9976,-0.9957,-0.9954,-0.9953,-0.9932,-0.9928,-0.9932,-0.9929,-0.9909,-0.9908,-0.9907,-0.9934,-0.9894,-0.9895,-0.9895,-0.9942,-0.9943,-0.9945,0,0,0,0,0,0,-0.9997,-0.9996,-0.9983,-0.9985,-0.9983,-0.9958,-0.9958,-0.9953,-0.9951,-0.9929,-0.9924,-0.9935,-0.9908,-0.9907,-0.9916,-0.9932,-0.9895,-0.9895,-0.994,-0.9942,-0.9944,-0.9988,0,0,0,0,0,0,-0.9998,-0.9997,-1.0005,-0.9986,-0.9983,-0.9992,-0.9959,-0.9954,-0.9951,-0.9947,-0.993,-0.9926,-0.9907,-0.9916,-0.9916,-0.9932,-0.9895,-0.9939,-0.9941,-0.9943,-0.9985,-0.9991,-0.9996,0,0,0,0,0,-0.9998,-1.0019,-1.0006,-1.0005,-0.9993,-0.9993,-0.9992,-0.997,-0.9953,-0.9962,-0.9947,-0.9926,-0.993,-0.9917,-0.9917,-0.9933,-0.9938,-0.994,-0.9943,-0.9982,-0.999,-0.9996,0,0,0,0,0,0,-1.0041,-1.0016,-1.0001,-1.0016,-1.0007,-0.9986,-0.9997,-0.9978,-0.9974,-0.9971,-0.9944,-0.994,-0.9953,-0.9944,-0.9929,-0.9955,-0.9931,-0.9934,-0.9961,-0.9968,-0.9973,-0.9975,-0.9895,0,0,0,0,0,-1.0052,-1.0055,-1.0032,-1.0047,-1.0044,-1.0021,-1.002,-1.0004,-0.9994,-0.999,-0.9976,-0.9967,-0.9966,-0.9967,-0.9965,-0.9983,-0.9979,-0.9994,-1.0,-1.0005,-1.0008,-1.0017,-1.0024,-0.9954,-0.9954,-0.9954,0,0,-1.0076,-1.0062,-1.0065,-1.0056,-1.0047,-1.005,-1.0018,-1.0023,-1.0025,-0.9991,-0.9999,-0.9988,-0.9977,-0.9991,-0.9996,-0.9984,-1.0026,-1.0008,-1.0012,-1.0012,-1.0021,-1.0027,-1.0033,-0.9956,-0.9955,-0.9955,0,0,-1.0119,-1.0109,-1.012,-1.0112,-1.01,-1.0084,-1.0087,-1.0069,-1.0061,-1.0068,-1.0043,-1.0045,-1.0044,-1.0037,-1.0033,-1.0075,-1.0056,-1.0075,-1.0105,-1.0114,-1.012,-1.0125,-1.014,-1.0145,-1.0078,-1.0078,-1.0078,0,-1.015,-1.0153,-1.0129,-1.0135,-1.0132,-1.0101,-1.0113,-1.0106,-1.0094,-1.0092,-1.0078,-1.0077,-1.0067,-1.0079,-1.0089,-1.0087,-1.009,-1.0077,-1.0121,-1.0126,-1.013,-1.0144,-1.0149,-1.008,-1.008,-1.008,-1.008,0,-1.0191,-1.0194,-1.0205,-1.0193,-1.0191,-1.02,-1.0178,-1.0179,-1.0163,-1.0149,-1.0158,-1.0145,-1.014,-1.0141,-1.0126,-1.0152,-1.0144,-1.0126,-1.0101,-1.0139,-1.0152,-1.0157,-1.0084,-1.0083,-1.0082,-1.0082,0,0,-1.0261,-1.0236,-1.024,-1.0235,-1.0219,-1.022,-1.0228,-1.0223,-1.0225,-1.0217,-1.0223,-1.0223,-1.0206,-1.0202,-1.0186,-1.0194,-1.0228,-1.0175,-1.0174,-1.0185,-1.0256,-1.027,-1.0276,-1.0215,-1.0216,-1.0217,-1.0257,0,-1.0301,-1.0313,-1.0291,-1.0308,-1.0311,-1.0282,-1.0288,-1.0279,-1.0267,-1.0268,-1.0254,-1.0255,-1.0232,-1.023,-1.0237,-1.0223,-1.0242,-1.0219,-1.0221,-1.0221,-1.0225,-1.0283,-1.0297,-1.0336,-1.0262,-1.0262,-1.0263,0,-1.035,-1.0344,-1.0361,-1.0344,-1.0344,-1.0351,-1.0345,-1.0346,-1.0335,-1.0325,-1.0321,-1.0301,-1.0308,-1.0284,-1.0293,-1.0278,-1.0277,-1.0271,-1.0271,-1.0271,-1.0244,-1.0284,-1.0347,-1.0353,-1.027,-1.027,-1.0269,0,-1.0399,-1.0396,-1.0406,-1.0402,-1.0383,-1.0388,-1.038,-1.0368,-1.0366,-1.0361,-1.036,-1.0356,-1.0353,-1.035,-1.033,-1.0315,-1.0342,-1.0316,-1.0334,-1.0335,-1.0341,-1.0341,-1.0406,-1.0341,-1.0341,-1.0341,-1.0341,0,-1.0446,-1.0458,-1.0428,-1.0434,-1.0446,-1.0422,-1.0435,-1.0424,-1.0414,-1.0417,-1.0392,-1.0396,-1.037,-1.0371,-1.0355,-1.0365,-1.0364,-1.0357,-1.0352,-1.0359,-1.036,-1.0358,-1.0355,-1.0342,-1.0342,-1.0342,-1.0341,0,-1.0504,-1.0484,-1.0493,-1.0474,-1.0469,-1.0479,-1.0462,-1.0467,-1.0453,-1.0458,-1.0458,-1.0437,-1.0437,-1.0416,-1.0412,-1.0402,-1.0419,-1.0409,-1.0422,-1.0419,-1.0439,-1.0437,-1.0504,-1.0512,-1.0443,-1.0443,-1.0444,0,-1.0535,-1.0544,-1.0525,-1.0526,-1.0519,-1.052,-1.0518,-1.0495,-1.0494,-1.0483,-1.0489,-1.0487,-1.0484,-1.0486,-1.047,-1.0467,-1.0457,-1.0481,-1.0457,-1.0463,-1.0458,-1.0458,-1.0459,-1.0486,-1.0487,-1.0488,-1.0489,0,-1.0594,-1.0584,-1.0582,-1.0577,-1.0576,-1.0571,-1.0564,-1.0566,-1.054,-1.0541,-1.0541,-1.0539,-1.0535,-1.0533,-1.0527,-1.0519,-1.05,-1.0496,-1.05,-1.0507,-1.0515,-1.0511,-1.0436,-1.0495,-1.0494,-1.0494,-1.0494,-1.0493,-1.0639,-1.0645,-1.0633,-1.0632,-1.0625,-1.0619,-1.0623,-1.061,-1.0609,-1.0604,-1.059,-1.0592,-1.0581,-1.0571,-1.0565,-1.0566,-1.0554,-1.056,-1.0562,-1.0564,-1.0567,-1.0514,-1.0565,-1.0565,-1.0565,-1.0564,-1.0564,0,-1.0696,-1.0687,-1.0687,-1.0678,-1.0678,-1.0659,-1.0651,-1.0652,-1.0654,-1.0646,-1.0643,-1.0643,-1.0642,-1.0626,-1.0622,-1.0627,-1.0618,-1.0626,-1.0626,-1.0624,-1.0578,-1.0575,-1.0634,-1.0634,-1.0634,-1.0634,-1.0634,-1.0634,-1.0726,-1.0735,-1.0724,-1.0729,-1.072,-1.0722,-1.0719,-1.0714,-1.0707,-1.0708,-1.0706,-1.0696,-1.0684,-1.068,-1.0678,-1.0673,-1.0673,-1.0685,-1.0677,-1.0634,-1.0628,-1.0621,-1.0618,-1.0685,-1.0685,-1.0723,-1.0724,-1.0724]},{"header":{"parameterUnit":"m.s-1","parameterCategory":1,"la1":30.2991,"la2":30.254,"lo1":-89.0895,"lo2":-89.0444,"dy":0.0017,"dx":0.0017,"nx":28,"ny":28,"refTime":"2024-05-01T09:00:00:Z","depth":0,"parameterNumber":3,"parameterNumberName":"V-component_of_WINDS"},"data":[0,0,0,0,0,0,0,0,0,0,0,0,0,0,0,0,0,0,0,0,0,0,0,0,0,0,0,0,0,0,0,0,0,0,0,0,0,0,0,0,0,0,0,0,0,0,0,0,0,0,0,0,0,0,0,0,0,0,2.3511,2.3511,0,2.3503,2.3503,2.3503,2.3459,2.3458,2.3457,2.3456,2.3448,2.3449,2.345,0,0,0,0,0,0,0,0,0,0,0,0,0,2.349,2.3491,2.3511,2.3511,2.3511,2.3503,2.3503,2.3502,2.346,2.3458,2.3457,2.3456,2.3448,2.3449,2.345,0,0,0,0,0,0,0,0,0,0,0,0,0,2.3492,2.3491,2.3511,2.3488,2.3486,2.3503,2.3503,2.3502,2.346,2.3458,2.3457,2.3455,2.3448,2.3449,2.345,2.3488,0,0,2.3453,2.3454,0,0,0,0,0,0,0,0,2.3492,2.3493,2.3492,2.349,2.3488,2.3481,2.3492,2.3497,2.346,2.347,2.3456,2.3455,2.346,2.346,2.3462,2.3487,2.3487,2.3453,2.3454,2.3455,2.3455,0,0,0,0,0,0,0,2.3492,2.3493,2.3508,2.3492,2.3489,2.3479,2.3477,2.3493,2.3474,2.3469,2.3466,2.3465,2.3459,2.3461,2.3462,2.3487,2.3453,2.3454,2.3455,2.3455,2.3543,2.3544,0,0,0,0,0,0,2.3495,2.3493,2.3508,2.3507,2.3486,2.348,2.3479,2.3484,2.3474,2.347,2.3467,2.3463,2.346,2.346,2.3461,2.3505,2.3455,2.3456,2.3456,2.3541,2.3543,2.3545,0,0,0,0,0,0,2.3495,2.3497,2.3508,2.35,2.35,2.3482,2.3489,2.3485,2.3487,2.3472,2.3468,2.3473,2.3459,2.346,2.3481,2.3504,2.3456,2.3457,2.3539,2.3542,2.3544,2.3592,0,0,0,0,0,0,2.3494,2.3497,2.3511,2.35,2.3501,2.3529,2.349,2.3486,2.3489,2.3485,2.3476,2.3474,2.3458,2.348,2.3482,2.3504,2.3458,2.3537,2.354,2.3543,2.3588,2.3596,2.3602,0,0,0,0,0,2.3494,2.3525,2.3512,2.3514,2.3518,2.353,2.353,2.3511,2.3491,2.3505,2.3495,2.3474,2.3501,2.3483,2.3485,2.3508,2.3535,2.3539,2.3543,2.3585,2.3594,2.3602,0,0,0,0,0,0,2.3538,2.3523,2.3508,2.3537,2.3535,2.3523,2.354,2.3522,2.3526,2.3521,2.3498,2.3496,2.3522,2.3517,2.3496,2.3544,2.3515,2.3519,2.3546,2.3554,2.3561,2.3562,2.3459,0,0,0,0,0,2.3552,2.3563,2.3548,2.3575,2.3575,2.3558,2.3562,2.3548,2.3545,2.3544,2.3536,2.3534,2.3542,2.3548,2.3555,2.3587,2.3585,2.3604,2.3611,2.3617,2.3621,2.3639,2.3647,2.3557,2.3557,2.3557,0,0,2.3579,2.3572,2.358,2.3584,2.3581,2.3593,2.3557,2.3571,2.358,2.3546,2.3566,2.356,2.3557,2.3585,2.3596,2.3581,2.3646,2.3622,2.3627,2.3627,2.3643,2.3652,2.3659,2.3559,2.3559,2.3559,0,0,2.3635,2.3631,2.3652,2.365,2.3646,2.3634,2.364,2.363,2.3625,2.3645,2.362,2.363,2.3644,2.3643,2.3644,2.37,2.3681,2.3703,2.374,2.3757,2.3764,2.377,2.379,2.3798,2.3707,2.3707,2.3708,0,2.367,2.3687,2.3666,2.3682,2.3684,2.3654,2.3676,2.3675,2.3673,2.3676,2.3659,2.3677,2.3672,2.3699,2.3713,2.3715,2.3721,2.3704,2.3765,2.3771,2.3776,2.3795,2.3803,2.371,2.371,2.371,2.3709,0,2.3729,2.3742,2.376,2.3759,2.3764,2.3783,2.3765,2.3772,2.3758,2.3748,2.3769,2.3762,2.3767,2.3773,2.3758,2.3798,2.3789,2.3769,2.3739,2.3788,2.3805,2.3813,2.3714,2.3713,2.3712,2.3712,0,0,2.3813,2.3801,2.3808,2.3808,2.3801,2.381,2.3828,2.3833,2.384,2.384,2.3854,2.3867,2.3849,2.385,2.3836,2.3851,2.3896,2.3829,2.3829,2.3842,2.394,2.3955,2.3964,2.3883,2.3885,2.3886,2.394,0,2.3867,2.3897,2.3879,2.3911,2.3922,2.3894,2.391,2.3908,2.3899,2.3908,2.3898,2.3908,2.3883,2.3884,2.3897,2.3888,2.3916,2.3884,2.3897,2.3898,2.3899,2.3973,2.3989,2.4041,2.3947,2.3948,2.3949,0,2.3934,2.3937,2.3971,2.3962,2.3966,2.3981,2.3984,2.3992,2.3989,2.3982,2.3984,2.3966,2.3983,2.3954,2.3977,2.3956,2.396,2.3957,2.3958,2.3959,2.3926,2.3976,2.4057,2.4065,2.396,2.3959,2.3958,0,2.3992,2.4004,2.4026,2.4027,2.4017,2.4028,2.4025,2.402,2.4025,2.4028,2.403,2.4035,2.4038,2.4042,2.4026,2.4006,2.4052,2.4021,2.4047,2.4047,2.4058,2.4057,2.4141,2.406,2.406,2.406,2.406,0,2.4054,2.4076,2.4052,2.4066,2.4089,2.4069,2.4093,2.4086,2.4083,2.4095,2.4071,2.4082,2.406,2.407,2.4057,2.4079,2.408,2.4075,2.4071,2.4077,2.4078,2.408,2.4076,2.4062,2.4062,2.4061,2.4061,0,2.4123,2.4108,2.413,2.412,2.4117,2.4135,2.4127,2.4139,2.4129,2.4144,2.4147,2.4131,2.4141,2.4125,2.4134,2.4125,2.4155,2.4146,2.4156,2.4154,2.418,2.4178,2.4268,2.4279,2.4191,2.4192,2.4193,0,2.4163,2.418,2.4171,2.4177,2.4175,2.4186,2.419,2.417,2.4176,2.4174,2.4187,2.4195,2.42,2.4218,2.4207,2.4213,2.4204,2.4235,2.4205,2.4211,2.4205,2.4205,2.4206,2.4242,2.4243,2.4244,2.4244,0,2.4237,2.4229,2.4236,2.4241,2.4247,2.425,2.4251,2.4258,2.4237,2.4244,2.4254,2.4259,2.4267,2.4276,2.4279,2.4276,2.4257,2.4254,2.426,2.4267,2.4272,2.427,2.4173,2.4252,2.4251,2.4251,2.425,2.425,2.4294,2.4307,2.4303,2.4312,2.4311,2.4312,2.4323,2.4315,2.4323,2.4328,2.4316,2.4329,2.4326,2.4329,2.4328,2.4338,2.4325,2.4334,2.4336,2.4339,2.4343,2.427,2.4339,2.4339,2.4339,2.4338,2.4338,0,2.4367,2.4363,2.4371,2.4373,2.4381,2.4362,2.4362,2.437,2.4382,2.438,2.4386,2.4398,2.4406,2.4397,2.4403,2.4413,2.4405,2.4416,2.4415,2.4414,2.4355,2.4349,2.4422,2.4422,2.4422,2.4422,2.4422,2.4422,2.4405,2.4427,2.4419,2.4439,2.4435,2.4448,2.445,2.4451,2.445,2.4465,2.4471,2.4465,2.4461,2.4467,2.4473,2.447,2.4474,2.4488,2.4482,2.4427,2.4419,2.4411,2.4405,2.4489,2.4489,2.4541,2.4541,2.4542]}]]